VOZ545 YSSY-YBCG

Flight info

Callsign VOZ545
Flight time 0h 59m
Altitude 35000
Route TESAT H252 OLSEM Y193 BANDA Y43 GREAV DCT GOMOL
Aircraft B77W/H-SDE1E2E3FGHIJ2J3J4J5M1RWXY/LB1D1

Departure

Time 2026-05-04 12:07
Airport Sydney Kingsford Smith International Airport (YSSY)

Arrival

Time 2026-05-04 13:07
Airport Gold Coast Airport (YBCG)
Time Latitude Longitude Altitude Speed Heading
2026-05-04 11:33 -33.93996 151.16388 35 ft 0 kts 82°
2026-05-04 11:47 -33.93997 151.16387 35 ft 1 kts 82°
2026-05-04 11:48 -33.94000 151.16357 33 ft 4 kts 82°
2026-05-04 11:48 -33.94003 151.16327 34 ft 2 kts 83°
2026-05-04 11:48 -33.94003 151.16303 34 ft 4 kts 121°
2026-05-04 11:48 -33.93987 151.16293 31 ft 4 kts 192°
2026-05-04 11:49 -33.93964 151.16300 34 ft 1 kts 192°
2026-05-04 11:49 -33.93959 151.16302 33 ft 0 kts 192°
2026-05-04 11:52 -33.93961 151.16301 33 ft 1 kts 192°
2026-05-04 11:52 -33.93971 151.16298 33 ft 2 kts 192°
2026-05-04 11:53 -33.93994 151.16293 31 ft 5 kts 192°
2026-05-04 11:53 -33.94035 151.16283 35 ft 7 kts 191°
2026-05-04 11:53 -33.94090 151.16280 35 ft 9 kts 174°
2026-05-04 11:53 -33.94150 151.16305 34 ft 10 kts 147°
2026-05-04 11:55 -33.94035 151.16951 35 ft 14 kts 73°
2026-05-04 11:55 -33.94009 151.17063 34 ft 14 kts 74°
2026-05-04 11:56 -33.93984 151.17180 34 ft 14 kts 85°
2026-05-04 11:56 -33.94047 151.17241 34 ft 13 kts 167°
2026-05-04 11:56 -33.94146 151.17268 33 ft 15 kts 167°
2026-05-04 11:56 -33.94253 151.17297 34 ft 16 kts 167°
2026-05-04 11:57 -33.94360 151.17326 35 ft 16 kts 168°
2026-05-04 11:57 -33.94466 151.17354 35 ft 16 kts 168°
2026-05-04 11:57 -33.94574 151.17382 35 ft 16 kts 167°
2026-05-04 11:57 -33.94681 151.17410 35 ft 16 kts 168°
2026-05-04 11:58 -33.94794 151.17439 35 ft 19 kts 168°
2026-05-04 11:58 -33.94933 151.17475 34 ft 21 kts 167°
2026-05-04 11:58 -33.95079 151.17513 34 ft 22 kts 168°
2026-05-04 11:58 -33.95209 151.17546 34 ft 11 kts 168°
2026-05-04 11:59 -33.95255 151.17564 34 ft 5 kts 143°
2026-05-04 11:59 -33.95262 151.17598 34 ft 2 kts 83°
2026-05-04 11:59 -33.95261 151.17606 34 ft 0 kts 79°
2026-05-04 12:02 -33.95158 151.18181 35 ft 17 kts 78°
2026-05-04 12:03 -33.95131 151.18329 35 ft 18 kts 77°
2026-05-04 12:03 -33.95113 151.18481 35 ft 18 kts 97°
2026-05-04 12:03 -33.95198 151.18633 35 ft 26 kts 139°
2026-05-04 12:03 -33.95359 151.18730 35 ft 26 kts 167°
2026-05-04 12:04 -33.95537 151.18777 35 ft 26 kts 168°
2026-05-04 12:04 -33.95716 151.18822 35 ft 26 kts 168°
2026-05-04 12:04 -33.95891 151.18868 35 ft 26 kts 167°
2026-05-04 12:04 -33.96089 151.18920 35 ft 35 kts 168°
2026-05-04 12:05 -33.96327 151.18982 35 ft 35 kts 167°
2026-05-04 12:05 -33.96564 151.19044 35 ft 35 kts 168°
2026-05-04 12:05 -33.96745 151.19067 35 ft 20 kts 183°
2026-05-04 12:05 -33.96881 151.19082 35 ft 20 kts 169°
2026-05-04 12:06 -33.97014 151.19116 35 ft 20 kts 168°
2026-05-04 12:06 -33.97115 151.19167 35 ft 10 kts 123°
2026-05-04 12:06 -33.97114 151.19250 34 ft 11 kts 75°
2026-05-04 12:06 -33.97092 151.19354 30 ft 9 kts 73°
2026-05-04 12:07 -33.97063 151.19370 30 ft 4 kts 347°
2026-05-04 12:07 -33.96869 151.19320 29 ft 73 kts 348°
2026-05-04 12:07 -33.96002 151.19095 41 ft 176 kts 347°
2026-05-04 12:07 -33.94739 151.18760 843 ft 190 kts 351°
2026-05-04 12:08 -33.93403 151.18855 1924 ft 199 kts 15°
2026-05-04 12:08 -33.92251 151.19794 2885 ft 204 kts 34°
2026-05-04 12:08 -33.91114 151.20920 3574 ft 221 kts 32°
2026-05-04 12:08 -33.89759 151.22051 3985 ft 252 kts 28°
2026-05-04 12:09 -33.88273 151.23267 4848 ft 265 kts 29°
2026-05-04 12:09 -33.86763 151.24541 5911 ft 271 kts 30°
2026-05-04 12:09 -33.85226 151.25863 7046 ft 273 kts 30°
2026-05-04 12:09 -33.83779 151.27360 8045 ft 283 kts 47°
2026-05-04 12:10 -33.82870 151.29510 9078 ft 293 kts 67°
2026-05-04 12:10 -33.82253 151.31868 10120 ft 298 kts 67°
2026-05-04 12:10 -33.81624 151.34282 10851 ft 314 kts 67°
2026-05-04 12:10 -33.80745 151.36811 11138 ft 340 kts 55°
2026-05-04 12:11 -33.79358 151.39249 11435 ft 367 kts 47°
2026-05-04 12:11 -33.77702 151.41657 12260 ft 379 kts 45°
2026-05-04 12:11 -33.75977 151.44092 13365 ft 386 kts 44°
2026-05-04 12:11 -33.74232 151.46582 14456 ft 392 kts 45°
2026-05-04 12:12 -33.72501 151.49094 15436 ft 400 kts 45°
2026-05-04 12:12 -33.70723 151.51706 16414 ft 408 kts 45°
2026-05-04 12:12 -33.68928 151.54364 17428 ft 414 kts 45°
2026-05-04 12:12 -33.67102 151.57068 18438 ft 420 kts 45°
2026-05-04 12:13 -33.65242 151.59800 19329 ft 424 kts 43°
2026-05-04 12:14 -33.47863 151.72941 25040 ft 433 kts 15°
2026-05-04 12:15 -33.45008 151.74105 25716 ft 432 kts
2026-05-04 12:15 -33.42084 151.74991 26379 ft 435 kts
2026-05-04 12:15 -33.39134 151.75888 27026 ft 439 kts
2026-05-04 12:15 -33.36165 151.76817 27642 ft 444 kts
2026-05-04 12:16 -33.33155 151.77779 28084 ft 451 kts
2026-05-04 12:16 -33.30155 151.78745 28066 ft 454 kts
2026-05-04 12:16 -33.24093 151.80718 28072 ft 450 kts
2026-05-04 12:17 -33.18051 151.82674 28081 ft 450 kts
2026-05-04 12:17 -33.11976 151.84630 28478 ft 455 kts
2026-05-04 12:18 -33.08902 151.85614 29048 ft 459 kts
2026-05-04 12:18 -33.05814 151.86605 29634 ft 462 kts
2026-05-04 12:18 -33.02747 151.87589 30165 ft 464 kts
2026-05-04 12:18 -32.99613 151.88595 30599 ft 466 kts
2026-05-04 12:19 -32.96476 151.89601 31064 ft 468 kts
2026-05-04 12:19 -32.93329 151.90610 31550 ft 469 kts
2026-05-04 12:19 -32.90176 151.91621 32027 ft 469 kts
2026-05-04 12:19 -32.87003 151.92634 32258 ft 476 kts
2026-05-04 12:20 -32.83788 151.93658 32616 ft 479 kts
2026-05-04 12:20 -32.80565 151.94686 33073 ft 480 kts
2026-05-04 12:20 -32.77344 151.95718 33620 ft 479 kts
2026-05-04 12:20 -32.74173 151.96733 34132 ft 478 kts
2026-05-04 12:21 -32.70967 151.97758 34565 ft 478 kts
2026-05-04 12:21 -32.67759 151.98782 35007 ft 477 kts
2026-05-04 12:21 -32.64564 151.99801 35469 ft 475 kts
2026-05-04 12:21 -32.61373 152.00816 35921 ft 474 kts
2026-05-04 12:22 -32.58188 152.01829 36349 ft 473 kts
2026-05-04 12:22 -32.55017 152.02835 36768 ft 472 kts
2026-05-04 12:22 -32.51837 152.03843 37118 ft 473 kts
2026-05-04 12:22 -32.48642 152.04849 37080 ft 477 kts
2026-05-04 12:23 -32.42304 152.06862 37093 ft 470 kts
2026-05-04 12:23 -32.36015 152.08860 37095 ft 467 kts
2026-05-04 12:24 -32.29729 152.10836 37103 ft 468 kts
2026-05-04 12:24 -32.23431 152.12816 37043 ft 469 kts
2026-05-04 12:25 -32.17178 152.14786 37080 ft 468 kts
2026-05-04 12:25 -32.10901 152.16762 37126 ft 466 kts
2026-05-04 12:26 -32.04628 152.18730 37088 ft 467 kts
2026-05-04 12:26 -31.99404 152.20369 37086 ft 466 kts
2026-05-04 12:27 -31.93139 152.22333 37092 ft 466 kts
2026-05-04 12:27 -31.85864 152.24605 37110 ft 465 kts
2026-05-04 12:28 -31.80654 152.26232 37109 ft 466 kts
2026-05-04 12:28 -31.74394 152.28185 37118 ft 465 kts
2026-05-04 12:29 -31.67127 152.30449 37117 ft 465 kts
2026-05-04 12:29 -31.60877 152.32391 37121 ft 465 kts
2026-05-04 12:30 -31.55646 152.34019 37120 ft 465 kts
2026-05-04 12:30 -31.49436 152.35943 37117 ft 463 kts
2026-05-04 12:31 -31.43207 152.37872 37130 ft 463 kts
2026-05-04 12:31 -31.35976 152.40107 37131 ft 462 kts
2026-05-04 12:32 -31.27705 152.42667 37116 ft 462 kts
2026-05-04 12:33 -31.21484 152.44576 37112 ft 462 kts
2026-05-04 12:33 -31.15190 152.46497 37134 ft 472 kts
2026-05-04 12:34 -31.08795 152.48465 37101 ft 478 kts
2026-05-04 12:34 -31.02388 152.50442 37117 ft 480 kts
2026-05-04 12:35 -30.95930 152.52429 37125 ft 479 kts
2026-05-04 12:35 -30.89484 152.54401 37127 ft 478 kts
2026-05-04 12:36 -30.83045 152.56369 37107 ft 478 kts
2026-05-04 12:36 -30.76695 152.58724 37145 ft 490 kts
2026-05-04 12:37 -30.70361 152.61707 37120 ft 492 kts
2026-05-04 12:37 -30.64010 152.64705 37135 ft 493 kts
2026-05-04 12:38 -30.57654 152.67661 37127 ft 492 kts
2026-05-04 12:38 -30.51291 152.70601 37118 ft 493 kts
2026-05-04 12:39 -30.44948 152.73451 37144 ft 487 kts
2026-05-04 12:39 -30.38516 152.75810 37142 ft 485 kts
2026-05-04 12:40 -30.32051 152.78051 37139 ft 486 kts
2026-05-04 12:40 -30.25579 152.80326 37151 ft 487 kts
2026-05-04 12:41 -30.19101 152.82637 37137 ft 487 kts
2026-05-04 12:41 -30.12667 152.84948 37152 ft 487 kts
2026-05-04 12:42 -30.06195 152.87268 37143 ft 487 kts
2026-05-04 12:42 -29.99717 152.89584 37148 ft 488 kts
2026-05-04 12:43 -29.93229 152.91904 37153 ft 488 kts
2026-05-04 12:43 -29.86786 152.94198 37139 ft 488 kts
2026-05-04 12:44 -29.80297 152.96507 37140 ft 488 kts
2026-05-04 12:44 -29.73816 152.98812 37146 ft 487 kts
2026-05-04 12:45 -29.67335 153.01113 37113 ft 487 kts
2026-05-04 12:45 -29.60921 153.03390 36905 ft 482 kts
2026-05-04 12:45 -29.57735 153.04524 36286 ft 478 kts
2026-05-04 12:46 -29.54564 153.05649 35590 ft 476 kts
2026-05-04 12:46 -29.51393 153.06769 34890 ft 475 kts
2026-05-04 12:46 -29.48239 153.07882 34247 ft 474 kts
2026-05-04 12:46 -29.45089 153.08993 33602 ft 471 kts
2026-05-04 12:47 -29.41978 153.10096 33149 ft 464 kts
2026-05-04 12:47 -29.38923 153.11179 32720 ft 457 kts
2026-05-04 12:47 -29.35942 153.12234 32257 ft 452 kts
2026-05-04 12:47 -29.32950 153.13288 31735 ft 448 kts
2026-05-04 12:48 -29.29979 153.14332 31192 ft 445 kts
2026-05-04 12:48 -29.27038 153.15363 30700 ft 441 kts
2026-05-04 12:48 -29.24118 153.16389 30253 ft 436 kts
2026-05-04 12:48 -29.21229 153.17405 29699 ft 432 kts
2026-05-04 12:49 -29.18373 153.18407 29131 ft 429 kts
2026-05-04 12:49 -29.15566 153.19391 28577 ft 426 kts
2026-05-04 12:49 -29.12743 153.20381 28044 ft 423 kts
2026-05-04 12:49 -29.09935 153.21364 27536 ft 420 kts
2026-05-04 12:50 -29.07151 153.22340 27044 ft 417 kts
2026-05-04 12:50 -29.04390 153.23306 26562 ft 414 kts
2026-05-04 12:50 -29.01649 153.24266 26078 ft 411 kts
2026-05-04 12:50 -28.98919 153.25221 25589 ft 409 kts
2026-05-04 12:51 -28.96208 153.26168 25099 ft 406 kts
2026-05-04 12:51 -28.93548 153.27097 24624 ft 405 kts 10°
2026-05-04 12:51 -28.90860 153.28035 24172 ft 403 kts 10°
2026-05-04 12:51 -28.88193 153.28966 23743 ft 400 kts 10°
2026-05-04 12:52 -28.85537 153.29893 23262 ft 397 kts 10°
2026-05-04 12:52 -28.82909 153.30810 22792 ft 394 kts 11°
2026-05-04 12:52 -28.80297 153.31721 22338 ft 391 kts 11°
2026-05-04 12:52 -28.77718 153.32621 21834 ft 381 kts 11°
2026-05-04 12:53 -28.75215 153.33497 21000 ft 374 kts 11°
2026-05-04 12:53 -28.72764 153.34350 20051 ft 372 kts 12°
2026-05-04 12:53 -28.70295 153.35206 19097 ft 371 kts 12°
2026-05-04 12:53 -28.67837 153.36058 18196 ft 368 kts 13°
2026-05-04 12:54 -28.65410 153.36901 17280 ft 362 kts 13°
2026-05-04 12:54 -28.63023 153.37731 16457 ft 355 kts 13°
2026-05-04 12:54 -28.60679 153.38546 15641 ft 349 kts 13°
2026-05-04 12:54 -28.58377 153.39345 14818 ft 344 kts 13°
2026-05-04 12:55 -28.56098 153.40136 14019 ft 340 kts 13°
2026-05-04 12:55 -28.53857 153.40912 13152 ft 334 kts 14°
2026-05-04 12:55 -28.51678 153.41667 12317 ft 330 kts 14°
2026-05-04 12:55 -28.49490 153.42425 11470 ft 327 kts 15°
2026-05-04 12:56 -28.47333 153.43171 10637 ft 320 kts 15°
2026-05-04 12:56 -28.45216 153.43903 10486 ft 310 kts 15°
2026-05-04 12:56 -28.43204 153.44600 10347 ft 294 kts 15°
2026-05-04 12:56 -28.41310 153.45255 10225 ft 275 kts 15°
2026-05-04 12:57 -28.39540 153.45868 10095 ft 257 kts 15°
2026-05-04 12:57 -28.37858 153.46449 9800 ft 250 kts 15°
2026-05-04 12:57 -28.36164 153.47033 9570 ft 270 kts 16°
2026-05-04 12:57 -28.34307 153.47672 9254 ft 284 kts 16°
2026-05-04 12:58 -28.32407 153.48327 8910 ft 287 kts 16°
2026-05-04 12:58 -28.30504 153.48984 8561 ft 280 kts 16°
2026-05-04 12:58 -28.28680 153.49614 8229 ft 269 kts 16°
2026-05-04 12:58 -28.26892 153.50231 7939 ft 268 kts 16°
2026-05-04 12:59 -28.25123 153.50841 7634 ft 267 kts 16°
2026-05-04 12:59 -28.23336 153.51457 7342 ft 267 kts 16°
2026-05-04 12:59 -28.21578 153.52063 6964 ft 269 kts 17°
2026-05-04 12:59 -28.19774 153.52684 6586 ft 273 kts 17°
2026-05-04 13:00 -28.17956 153.53310 6217 ft 273 kts 17°
2026-05-04 13:00 -28.16140 153.53936 5878 ft 273 kts 17°
2026-05-04 13:00 -28.14321 153.54562 5562 ft 272 kts 18°
2026-05-04 13:00 -28.12512 153.55184 5241 ft 271 kts 18°
2026-05-04 13:01 -28.10712 153.55802 4942 ft 271 kts 18°
2026-05-04 13:01 -28.08930 153.56415 4793 ft 263 kts 18°
2026-05-04 13:01 -28.07206 153.57007 4672 ft 254 kts 18°
2026-05-04 13:01 -28.05537 153.57481 4547 ft 241 kts
2026-05-04 13:02 -28.03972 153.57112 4473 ft 232 kts 331°
2026-05-04 13:02 -28.02772 153.55903 4238 ft 236 kts 304°
2026-05-04 13:02 -28.02090 153.54217 3948 ft 236 kts 282°
2026-05-04 13:02 -28.01982 153.52388 3706 ft 231 kts 269°
2026-05-04 13:03 -28.02033 153.50580 3413 ft 230 kts 267°
2026-05-04 13:03 -28.02313 153.48827 3079 ft 225 kts 243°
2026-05-04 13:03 -28.03306 153.47527 2840 ft 217 kts 212°
2026-05-04 13:03 -28.04647 153.46912 2505 ft 202 kts 187°
2026-05-04 13:04 -28.06000 153.46827 2256 ft 193 kts 179°
2026-05-04 13:04 -28.07268 153.46821 2191 ft 179 kts 178°
2026-05-04 13:04 -28.08542 153.46827 2103 ft 188 kts 177°
2026-05-04 13:04 -28.09763 153.46947 1772 ft 167 kts 168°
2026-05-04 13:05 -28.10849 153.47268 1299 ft 155 kts 162°
2026-05-04 13:05 -28.11793 153.47672 995 ft 141 kts 152°
2026-05-04 13:05 -28.12651 153.48192 786 ft 141 kts 152°
2026-05-04 13:05 -28.13514 153.48722 549 ft 143 kts 152°
2026-05-04 13:06 -28.14368 153.49262 393 ft 140 kts 151°
2026-05-04 13:06 -28.15222 153.49796 171 ft 139 kts 151°
2026-05-04 13:06 -28.16053 153.50332 34 ft 131 kts 151°
2026-05-04 13:06 -28.16764 153.50779 33 ft 100 kts 150°
2026-05-04 13:07 -28.17262 153.51096 32 ft 65 kts 151°
2026-05-04 13:07 -28.17525 153.51259 33 ft 22 kts 147°
2026-05-04 13:07 -28.17571 153.51360 32 ft 14 kts 79°
2026-05-04 13:07 -28.17510 153.51444 31 ft 15 kts 19°
2026-05-04 13:08 -28.17413 153.51409 31 ft 15 kts 330°
2026-05-04 13:08 -28.17319 153.51348 31 ft 16 kts 330°
2026-05-04 13:08 -28.17217 153.51282 31 ft 17 kts 330°
2026-05-04 13:08 -28.17110 153.51228 31 ft 13 kts
2026-05-04 13:09 -28.17042 153.51267 31 ft 11 kts 357°
2026-05-04 13:09 -28.16982 153.51242 31 ft 0 kts 353°
2026-05-04 13:09 -28.16967 153.51259 31 ft 6 kts 58°
2026-05-04 13:09 -28.16955 153.51281 31 ft 3 kts 59°
2026-05-04 13:10 -28.16941 153.51309 31 ft 5 kts 60°
2026-05-04 13:10 -28.16931 153.51328 31 ft 2 kts 60°
2026-05-04 13:10 -28.16931 153.51329 31 ft 0 kts 60°